Home   Weather   Bradenton   Past weeks

Flag for USA Past Weather in Bradenton, Florida, USA — Yesterday and Last 2 Weeks

Now
77 °F

Clear.


Feels Like: 79 °F
Forecast: 73 / 91 °F
Wind: 6 mph from Southwest

Location: Sarasota-Bradenton International Airport

Current Time: Apr 27, 2017 at 10:34:45 pm

Latest Report: Apr 27, 2017 at 9:53 pm


Visibility: 10 mi

Pressure: 29.93 "Hg

Humidity: 79%

Dew Point: 70 °F

Location of BradentonLocation

Past Weather in Bradenton — Graph

°F

Bradenton Temperature Yesterday

Maximum temperature yesterday: 83 °F (at 1:53 pm)
Minimum temperature yesterday: 65 °F (at 6:53 am)
Average temperature yesterday: 76 °F

High & Low Weather Summary for the Past Weeks

 TemperatureHumidityPressure
High90 °F (Apr 19, 4:53 pm)94% (Apr 27, 8:53 am)30.21 "Hg (Apr 27, 8:53 am)
Low62 °F (Apr 14, 5:53 am)24% (Apr 19, 4:53 pm)29.72 "Hg (Apr 24, 5:53 am)
Average75 °F64%30.00 "Hg
* Reported Apr 12 8:53 pm — Apr 27 8:53 pm, Bradenton, Weather by CustomWeather, © 2017

Note: Actual official high and low records may vary slightly from our data, if they occured in-between our weather recording intervals... More about our weather records

Advertising

Bradenton Weather History for the Previous 24 Hours

Scroll right to see more
 ConditionsComfort  
Time TempWeatherWind HumidityBarometerVisibility
8:53 pm
Thu, Apr 27
78 °FClear.6 mph76%29.91 "Hg9 mi
7:53 pm79 °FSunny.8 mph74%29.90 "Hg10 mi
6:53 pm80 °FSunny.12 mph74%29.89 "Hg10 mi
5:53 pm82 °FSunny.13 mph74%29.88 "Hg10 mi
4:53 pm84 °FSunny.13 mph67%29.86 "Hg10 mi
3:53 pm84 °FSunny.17 mph67%29.88 "Hg10 mi
2:53 pm84 °FSunny.15 mph67%29.91 "Hg10 mi
1:53 pm85 °FSunny.16 mph63%29.92 "Hg10 mi
12:53 pm85 °FSunny.15 mph59%29.94 "Hg10 mi
11:53 am84 °FSunny.9 mph63%29.95 "Hg10 mi
10:53 am82 °FPassing clouds.8 mph65%29.94 "Hg10 mi
10:21 am81 °FScattered clouds.9 mph67%29.95 "Hg10 mi
9:53 am76 °FPartly sunny.8 mph85%29.94 "Hg10 mi
9:39 am75 °FPartly sunny.8 mph88%29.94 "Hg10 mi
8:53 am74 °FFog.10 mph94%29.92 "Hg4 mi
7:53 am71 °FFog.8 mph93%29.90 "Hg4 mi
7:21 am70 °FFog.7 mph90%29.90 "Hg5 mi
6:53 am69 °FFog.6 mph90%29.89 "Hg6 mi
5:53 am69 °FPassing clouds.8 mph90%29.87 "Hg9 mi
4:53 am69 °FClear.6 mph93%29.86 "Hg7 mi
4:03 am69 °FPassing clouds.9 mph93%29.86 "Hg7 mi
3:53 am69 °FClear.9 mph93%29.86 "Hg7 mi
2:53 am69 °FClear.8 mph90%29.87 "Hg9 mi
1:53 am70 °FClear.5 mph90%29.88 "Hg10 mi
12:53 am71 °FPassing clouds.7 mph90%29.89 "Hg10 mi
11:53 pm
Wed, Apr 26
73 °FClear.5 mph88%29.89 "Hg10 mi
10:53 pm74 °FClear.6 mph85%29.88 "Hg10 mi
Weather by CustomWeather, © 2017

See weather overviewHow to use our weather pages